星链-11578 (STARLINK-11578)

导读

STARLINK-11578是美国SpaceX星链星座中的一颗低轨互联网通信卫星,于2025年2月15日发射入轨。星链项目旨在为全球,尤其是基础设施匮乏的偏远地区,提供高速低延迟的宽带互联网服务。单颗第二代星链卫星容量相较初代提升四倍,为全球超600万用户持续扩容网络,助力实现全球网络覆盖。

基本信息
目录编号:
63014
目录名称:
STARLINK-11578
国际标识:
2025-032K
轨道中心:
EARTH
卫星名称:
星链-11578
卫星全名:
星链-11578 (STARLINK-11578)
卫星状态:
在轨 (已飞行573 天)
发射日期:
2025-02-15 UTC
国别 :
美国 (US)
星等 :
--
该卫星已列入 空间交会检测服务 Space Conjunction Data Service (SCDS) ,当前飞行风险评估等级: 无高风险
轨道信息
数据来源 国际轨道数据
星历时间: 2026-09-11T10:51:46+0800
13小时前
查看轨道信息
半长轴: 6734.606km
偏心率: 0.0002344
轨道倾角: 43.002°
近地点辐角 282.766°
升交点赤经 157.939°
平近点角 77.294°
近地点: 354.89km
远地点: 358.048km
周期: 91.670分钟
每日圈数: 15.708493
详细信息
固有亮度:
5
最大亮度:
2.5
卫星平台:
Starlink V1.0
覆盖范围:
全球
运营商:
太空探索技术公司
运营商所在国:
美国
制造商(研发单位):
太空探索技术公司
制造商所在国:
美国
使用方式:
暂无
卫星简介
Starlink 计划是 SpaceX 推出的全球卫星互联网项目,通过发射低轨道卫星,为全球尤其是偏远地区提供高速、低延迟的互联网服务。自 2019 年起,Starlink 已部署数千颗卫星,旨在缩小全球数字鸿沟,推动互联网普及。该项目还为军事、航空等行业提供通信支持,带来广泛经济效益。
2D轨道图
3D轨道图
轨道高度分析图
轨道倾角分析图
轨道综合分析图
查看轨道综合分析图
交会数据列表
事件ID 空间交会对象 最接近时刻(TCA) 交会距离 交会风险概率(CRP) 交会风险指数(CRI) 操作
CDM_260912-115706-255906-301421
2026-09-12T
11:57:30+0000
1.611 km
极远距离
2.582487E-6 低风险 0.43
CDM_260912-094006-255906-301421
2026-09-12T
09:40:12+0000
2.472 km
极远距离
9.441225E-7 极低风险 0.35
与全量物体交会距离演化趋势
与全量物体交会风险概率演化趋势